星链-32294 (STARLINK-32294)

导读

STARLINK-32294是美国太空探索技术公司(SpaceX)于2024年10月26日发射的星链(Starlink)低轨互联网卫星,运行在约550公里高度的近地轨道,属于星链星座组网卫星。该卫星采用Ku/Ka波段通信,配备星间激光链路与自主碰撞规避系统,依托氪离子推进技术,为全球偏远地区等场景提供低时延宽带互联网接入服务,助力星链全球覆盖网络建设。

基本信息
目录编号:
61675
目录名称:
STARLINK-32294
国际标识:
2024-193Q
轨道中心:
EARTH
卫星名称:
星链-32294
卫星全名:
星链-32294 (STARLINK-32294)
卫星状态:
在轨 (已飞行599 天)
发射日期:
2024-10-26 UTC
国别 :
美国 (US)
星等 :
--
轨道信息
数据来源 国际轨道数据
星历时间: 2026-06-17T13:27:07+0800
17小时前
查看轨道信息
半长轴: 6848.868km
偏心率: 0.0001314
轨道倾角: 53.162°
近地点辐角 94.107°
升交点赤经 348.145°
平近点角 266.009°
近地点: 469.831km
远地点: 471.631km
周期: 94.013分钟
每日圈数: 15.317031
详细信息
固有亮度:
5
最大亮度:
2.5
卫星平台:
Starlink V1.0
覆盖范围:
全球
运营商:
太空探索技术公司
运营商所在国:
美国
制造商(研发单位):
太空探索技术公司
制造商所在国:
美国
使用方式:
暂无
卫星简介
Starlink 计划是 SpaceX 推出的全球卫星互联网项目,通过发射低轨道卫星,为全球尤其是偏远地区提供高速、低延迟的互联网服务。自 2019 年起,Starlink 已部署数千颗卫星,旨在缩小全球数字鸿沟,推动互联网普及。该项目还为军事、航空等行业提供通信支持,带来广泛经济效益。
2D轨道图
3D轨道图
轨道高度分析图
轨道倾角分析图
轨道综合分析图
查看轨道综合分析图